IW5EFR Vecchia di Pontedera IT current weather conditions

sailwx.info

Wind from 290 at 0 knots gusting 7

Air temperature 17.2° C
Dewpoint 3.1° C

Last reported at 2015-Mar-29 15:51 UTC.
Time now 2015-Mar-29 16:10 UTC

Location: N 43°37' E 010°38'.
View on Google Maps.

See reports from other nearby stations

  
Tides and Currents Weather Stations Pressure Air Temp Water Temp Dewpoint Dewpoint Depression Visibility Wind Speed Wind Dir Waves Ship Positions
date/time (UTC)wind fromknots sea level pressurealtimeterstation pressurevisibilityair tempwater tempwave heightnotes
2015-Mar-29 15:51 290 0 gusting 7 17.2
2015-Mar-29 15:46 290 3 gusting 7 17.2
2015-Mar-29 15:41 288 4 gusting 8 17.2
2015-Mar-29 15:36 306 2 gusting 8 17.2
2015-Mar-29 15:31 302 4 gusting 9 17.2
2015-Mar-29 15:26 279 1 gusting 9 17.8
2015-Mar-29 15:21 281 1 gusting 9 17.8
2015-Mar-29 15:16 267 0 gusting 9 17.8
2015-Mar-29 15:11 277 2 gusting 9 17.8
2015-Mar-29 15:06 271 4 gusting 9 17.2
2015-Mar-29 15:01 281 6 gusting 9 17.2
2015-Mar-29 14:56 265 6 gusting 11 17.2
2015-Mar-29 14:51 261 3 gusting 9 17.2
2015-Mar-29 14:46 253 6 gusting 9 17.8
2015-Mar-29 14:41 288 3 gusting 10 17.8
2015-Mar-29 14:36 275 4 gusting 10 17.8
2015-Mar-29 14:31 280 6 gusting 10 18.3
2015-Mar-29 14:26 287 2 gusting 10 18.3
2015-Mar-29 14:21 269 6 gusting 12 18.3
2015-Mar-29 14:16 277 3 gusting 12 18.3
2015-Mar-29 14:11 277 4 gusting 12 18.3
2015-Mar-29 14:06 296 6 gusting 12 18.3
2015-Mar-29 14:01 271 6 gusting 12 18.9
2015-Mar-29 13:56 309 5 gusting 12 18.9
2015-Mar-29 13:51 284 4 gusting 12 18.9
2015-Mar-29 13:46 257 10 gusting 12 18.9
2015-Mar-29 13:41 279 6 gusting 13 18.9
2015-Mar-29 13:36 299 2 gusting 13 18.9
2015-Mar-29 13:31 262 9 gusting 11 18.9
2015-Mar-29 13:26 281 6 gusting 11 18.9
2015-Mar-29 13:21 336 2 gusting 10 18.9
2015-Mar-29 13:16 282 3 gusting 10 18.9
2015-Mar-29 13:11 286 8 gusting 9 18.9
2015-Mar-29 13:06 260 6 gusting 9 18.9
2015-Mar-29 13:01 318 8 gusting 9 18.9
2015-Mar-29 12:56 279 9 gusting 10 18.9
2015-Mar-29 12:51 268 5 gusting 7 18.9
2015-Mar-29 12:46 288 1 gusting 7 18.9
2015-Mar-29 12:41 319 6 gusting 8 18.9
2015-Mar-29 12:36 288 2 gusting 8 18.9
2015-Mar-29 12:31 271 1 gusting 9 18.3
2015-Mar-29 12:26 272 3 gusting 9 18.3
2015-Mar-29 12:21 275 3 gusting 8 18.3
2015-Mar-29 12:16 346 5 gusting 8 18.3
2015-Mar-29 12:11 275 6 gusting 11 18.9
2015-Mar-29 12:06 304 5 gusting 11 18.3
2015-Mar-29 12:01 314 2 gusting 11 18.3
2015-Mar-29 11:56 269 0 gusting 9 18.3
2015-Mar-29 11:51 285 6 gusting 9 18.3
2015-Mar-29 11:46 275 2 gusting 9 18.3
2015-Mar-29 11:41 335 7 gusting 9 18.3
2015-Mar-29 11:36 279 1 gusting 9 18.3
2015-Mar-29 11:31 288 2 gusting 9 18.3
2015-Mar-29 11:26 315 5 gusting 9 18.3
2015-Mar-29 11:21 283 3 gusting 6 18.3
2015-Mar-29 11:16 298 3 gusting 6 18.3
2015-Mar-29 11:11 287 2 gusting 7 18.3
2015-Mar-29 11:06 309 3 gusting 7 18.3
2015-Mar-29 11:01 302 1 gusting 7 18.3
2015-Mar-29 10:56 281 6 gusting 5 17.8
2015-Mar-29 10:51 279 2 gusting 4 17.8
2015-Mar-29 10:46 284 1 gusting 4 17.8
2015-Mar-29 10:41 296 2 gusting 4 17.8
2015-Mar-29 10:36 338 1 gusting 4 17.8
2015-Mar-29 10:31 342 3 gusting 2 17.2
2015-Mar-29 10:26 327 1 gusting 2 17.2
2015-Mar-29 10:21 327 0 gusting 3 17.2
2015-Mar-29 10:16 221 1 gusting 3 16.7
2015-Mar-29 10:11 221 16.7
2015-Mar-29 10:06 220 0 gusting 4 16.1
2015-Mar-29 10:01 157 0 gusting 4 16.1
2015-Mar-29 09:56 147 0 gusting 6 16.1
2015-Mar-29 09:51 147 3 gusting 4 16.1
2015-Mar-29 09:46 147 0 gusting 4 15.6
2015-Mar-29 09:41 155 4 gusting 5 15.6
2015-Mar-29 09:36 167 15.0
2015-Mar-29 09:31 163 0 gusting 4 15.0
2015-Mar-29 09:26 148 0 gusting 4 15.0
2015-Mar-29 09:21 146 1 gusting 3 15.0
2015-Mar-29 09:16 154 15.0
2015-Mar-29 09:11 154 1 gusting 2 15.0
2015-Mar-29 09:06 155 14.4
2015-Mar-29 09:01 155 14.4
2015-Mar-29 08:56 155 0 gusting 2 13.9
2015-Mar-29 08:51 155 13.9
2015-Mar-29 08:46 155 0 gusting 1 13.9
2015-Mar-29 08:41 155 13.3
2015-Mar-29 08:36 155 13.3
2015-Mar-29 08:31 155 1 gusting 2 12.8
2015-Mar-29 08:26 155 12.2
2015-Mar-29 08:21 155 2 gusting 1 12.2
2015-Mar-29 08:16 155 2 gusting 1 12.2
2015-Mar-29 08:11 155 0 gusting 2 11.7
2015-Mar-29 08:06 155 11.7
2015-Mar-29 08:01 155 0 gusting 2 11.1
2015-Mar-29 07:56 155 0 gusting 3 11.1
2015-Mar-29 07:51 155 10.6
2015-Mar-29 07:46 155 10.6
2015-Mar-29 07:41 155 10.0
2015-Mar-29 07:36 155 10.0
2015-Mar-29 07:31 155 2 gusting 1 9.4
2015-Mar-29 07:26 155 9.4
2015-Mar-29 07:21 155 8.9
2015-Mar-29 07:16 155 8.3
2015-Mar-29 07:11 155 7.8
2015-Mar-29 07:06 155 0 gusting 3 7.8
2015-Mar-29 07:01 155 1 gusting 3 7.2
2015-Mar-29 06:56 155 0 gusting 2 6.7
2015-Mar-29 06:51 155 1 gusting 2 6.7
2015-Mar-29 06:46 155 1 gusting 2 6.1
2015-Mar-29 06:41 155 1 gusting 2 6.1
2015-Mar-29 06:36 155 1 gusting 2 6.1
2015-Mar-29 06:31 155 1 gusting 1 5.6
2015-Mar-29 06:26 155 0 gusting 1 5.6
2015-Mar-29 06:21 155 1 gusting 3 5.6
2015-Mar-29 06:16 155 2 gusting 3 5.0
2015-Mar-29 06:11 155 5.0
2015-Mar-29 06:06 155 0 gusting 3 5.0
2015-Mar-29 06:01 155 2 gusting 3 5.0
2015-Mar-29 05:56 155 0 gusting 1 4.4
2015-Mar-29 05:51 155 1 gusting 2 4.4
2015-Mar-29 05:46 155 0 gusting 2 4.4
2015-Mar-29 05:41 155 3.9
2015-Mar-29 05:36 155 3.9
2015-Mar-29 05:31 155 3.3
2015-Mar-29 05:26 155 1 gusting 1 3.3
2015-Mar-29 05:21 155 0 gusting 1 3.3
2015-Mar-29 05:16 155 3.3
2015-Mar-29 05:11 155 3.3
2015-Mar-29 05:06 155 3.3
2015-Mar-29 05:01 155 3.3
2015-Mar-29 04:56 155 0 gusting 3 3.3
2015-Mar-29 04:51 155 3 gusting 2 3.9
2015-Mar-29 04:46 153 4 gusting 2 3.3
2015-Mar-29 04:41 153 0 3.3
2015-Mar-29 04:36 153 3.3
2015-Mar-29 04:31 153 3.9
2015-Mar-29 04:26 153 3.9
2015-Mar-29 04:21 153 3.9
2015-Mar-29 04:16 153 3.9
2015-Mar-29 04:11 153 3.9
2015-Mar-29 04:06 153 3.9
2015-Mar-29 04:01 153 0 gusting 3 3.9
2015-Mar-29 03:56 153 1 gusting 2 4.4
2015-Mar-29 03:51 153 1 gusting 2 4.4
2015-Mar-29 03:46 153 1 gusting 2 4.4
2015-Mar-29 03:41 153 0 gusting 3 4.4
2015-Mar-29 03:36 153 0 gusting 3 4.4
2015-Mar-29 03:31 153 1 4.4
2015-Mar-29 03:26 153 0 4.4
2015-Mar-29 03:21 153 1 4.4
2015-Mar-29 03:16 153 2 4.4
2015-Mar-29 03:11 153 4.4
2015-Mar-29 03:06 153 5.0
2015-Mar-29 03:01 153 5.0
2015-Mar-29 02:56 153 5.0
2015-Mar-29 02:51 153 0 gusting 3 5.0
2015-Mar-29 02:46 153 1 gusting 3 5.0
2015-Mar-29 02:41 153 1 gusting 2 5.0
2015-Mar-29 02:36 153 5.0
2015-Mar-29 02:31 153 5.0
2015-Mar-29 02:26 153 1 gusting 1 5.6
2015-Mar-29 02:21 153 1 gusting 3 5.6
2015-Mar-29 02:16 153 0 gusting 3 5.6
2015-Mar-29 02:11 153 0 gusting 3 5.6
2015-Mar-29 02:06 153 5.0
2015-Mar-29 02:01 153 3 gusting 3 5.0
2015-Mar-29 01:56 153 2 gusting 2 5.0
2015-Mar-29 01:51 153 2 gusting 4 5.6
2015-Mar-29 01:46 153 5.6
2015-Mar-29 01:41 153 5.6
2015-Mar-29 01:36 153 1 gusting 4 5.6
2015-Mar-29 01:31 153 0 gusting 3 5.6
2015-Mar-29 01:26 153 2 gusting 3 5.6
2015-Mar-29 01:21 153 3 gusting 4 5.6
2015-Mar-29 01:16 153 3 gusting 4 5.6
2015-Mar-29 01:11 153 5.6
2015-Mar-29 01:05 153 2 gusting 4 5.6
2015-Mar-29 00:56 153 2 gusting 5 5.6
2015-Mar-29 00:51 153 0 gusting 4 5.6
2015-Mar-29 00:46 154 2 gusting 4 5.6
2015-Mar-29 00:41 154 3 gusting 5 5.6
2015-Mar-29 00:38 154 4 gusting 5 5.6
2015-Mar-29 00:33 154 2 gusting 4 5.6
2015-Mar-29 00:28 156 2 gusting 4 5.6
2015-Mar-29 00:23 156 1 gusting 4 5.6
2015-Mar-29 00:18 156 3 gusting 3 5.6
2015-Mar-29 00:13 156 0 gusting 2 5.6
2015-Mar-29 00:08 156 5.6
2015-Mar-29 00:03 156 1 gusting 2 6.1
2015-Mar-28 23:58 156 0 gusting 2 6.1
2015-Mar-28 23:53 156 1 gusting 2 6.1
2015-Mar-28 23:48 156 1 gusting 2 6.1
2015-Mar-28 23:43 156 0 gusting 2 6.1
2015-Mar-28 23:38 156 6.1
2015-Mar-28 23:33 156 0 gusting 2 6.7
2015-Mar-28 23:28 156 6.7
2015-Mar-28 23:23 156 0 gusting 3 6.7
2015-Mar-28 23:18 156 0 gusting 3 6.7
2015-Mar-28 23:13 156 1 gusting 3 6.7
2015-Mar-28 23:08 156 6.7
2015-Mar-28 23:03 156 6.7
2015-Mar-28 22:58 156 1 gusting 6 6.7
2015-Mar-28 22:53 156 6.7
2015-Mar-28 22:48 156 6.7
2015-Mar-28 22:43 156 1 gusting 4 6.7
2015-Mar-28 22:38 156 4 gusting 6 6.7
2015-Mar-28 22:33 154 2 gusting 6 6.7
2015-Mar-28 22:28 154 1 gusting 6 6.7
2015-Mar-28 22:23 154 1 gusting 6 6.7
2015-Mar-28 22:18 154 2 gusting 5 7.2
2015-Mar-28 22:13 162 4 gusting 5 7.2
2015-Mar-28 22:08 162 4 gusting 5 7.2
2015-Mar-28 22:03 169 0 gusting 5 7.8
2015-Mar-28 21:58 169 3 gusting 3 7.8
2015-Mar-28 21:53 177 5 gusting 3 8.3
2015-Mar-28 21:48 184 0 gusting 3 8.3
2015-Mar-28 21:43 196 2 gusting 3 8.9
2015-Mar-28 21:38 196 9.4
2015-Mar-28 21:33 229 10.0
2015-Mar-28 21:28 229 10.6
2015-Mar-28 21:23 229 10.6
2015-Mar-28 21:18 229 10.6
2015-Mar-28 21:13 229 10.6
2015-Mar-28 21:08 241 11.1
2015-Mar-28 21:03 244 11.1
2015-Mar-28 20:58 244 11.1
2015-Mar-28 20:53 244 11.7
2015-Mar-28 20:48 244 11.7
2015-Mar-28 20:43 244 11.7
2015-Mar-28 20:38 244 0 gusting 3 11.7
2015-Mar-28 20:33 244 1 gusting 3 11.1
2015-Mar-28 20:28 244 11.7
2015-Mar-28 20:23 225 0 gusting 3 11.7
2015-Mar-28 20:18 225 0 gusting 3 11.7
2015-Mar-28 20:13 226 2 gusting 5 11.7
2015-Mar-28 20:08 229 0 gusting 5 11.7
2015-Mar-28 20:03 257 0 gusting 5 11.7
2015-Mar-28 19:58 259 11.7
2015-Mar-28 19:53 261 3 gusting 6 11.7
2015-Mar-28 19:48 259 2 gusting 6 11.7
2015-Mar-28 19:43 258 3 gusting 6 11.7
2015-Mar-28 19:38 262 3 gusting 6 12.2
2015-Mar-28 19:33 248 3 gusting 6 12.2
2015-Mar-28 19:28 275 1 gusting 5 12.2
2015-Mar-28 19:23 254 5 gusting 5 12.2
2015-Mar-28 19:18 263 0 gusting 4 12.2
2015-Mar-28 19:13 261 1 gusting 5 12.2
2015-Mar-28 19:08 257 3 gusting 5 12.2
2015-Mar-28 19:03 257 1 gusting 5 12.8
2015-Mar-28 18:58 257 2 gusting 6 12.8
2015-Mar-28 18:53 257 2 gusting 6 12.8
2015-Mar-28 18:48 257 1 gusting 6 13.3
2015-Mar-28 18:43 257 1 gusting 6 13.3
2015-Mar-28 18:38 264 1 gusting 8 13.3
2015-Mar-28 18:33 278 4 gusting 5 13.9
2015-Mar-28 18:28 274 2 gusting 5 13.9
2015-Mar-28 18:23 266 5 gusting 7 13.9
2015-Mar-28 18:18 269 5 gusting 7 13.9
2015-Mar-28 18:13 271 3 gusting 7 14.4
2015-Mar-28 18:08 277 2 gusting 6 14.4
2015-Mar-28 18:03 283 3 gusting 6 14.4
2015-Mar-28 17:58 261 5 gusting 6 14.4
2015-Mar-28 17:53 254 3 gusting 6 14.4
2015-Mar-28 17:48 261 3 gusting 6 15.0
2015-Mar-28 17:43 272 3 gusting 7 15.0
2015-Mar-28 17:38 265 3 gusting 7 15.0
2015-Mar-28 17:33 264 4 gusting 6 15.6
2015-Mar-28 17:28 261 4 gusting 6 15.6
2015-Mar-28 17:23 261 4 gusting 6 15.6
2015-Mar-28 17:18 263 4 gusting 6 16.1
2015-Mar-28 17:13 263 0 gusting 6 16.1
2015-Mar-28 17:08 269 2 gusting 6 16.1
2015-Mar-28 17:03 265 4 gusting 6 16.7
2015-Mar-28 16:58 252 5 gusting 7 16.7
2015-Mar-28 16:53 267 2 gusting 7 16.7
2015-Mar-28 16:48 276 1 gusting 8 17.2
2015-Mar-28 16:43 265 3 gusting 8 17.2
2015-Mar-28 16:38 263 1 gusting 11 17.2
2015-Mar-28 16:33 282 6 gusting 11 17.2
2015-Mar-28 16:28 265 5 gusting 9 17.2
2015-Mar-28 16:23 275 4 gusting 11 17.2
2015-Mar-28 16:18 279 6 gusting 11 17.2
2015-Mar-28 16:13 267 3 gusting 11 17.2
2015-Mar-28 16:08 271 6 gusting 11 17.2
2015-Mar-28 16:03 284 5 gusting 11 17.8
2015-Mar-28 15:58 284 8 gusting 8 17.8
2015-Mar-28 15:53 275 10 gusting 11 17.8
2015-Mar-28 15:48 310 3 gusting 11 17.8
2015-Mar-28 15:43 282 6 gusting 11 18.3
2015-Mar-28 15:38 270 3 gusting 11 18.3
2015-Mar-28 15:33 325 3 gusting 11 18.3
2015-Mar-28 15:28 276 4 gusting 11 17.8
2015-Mar-28 15:23 261 6 gusting 13 18.3
2015-Mar-28 15:18 265 1 gusting 13 18.3
2015-Mar-28 15:13 288 5 gusting 13 18.3
2015-Mar-28 15:08 267 4 gusting 13 18.3
2015-Mar-28 15:03 259 5 gusting 13 18.3
2015-Mar-28 14:58 281 3 gusting 13 18.3
2015-Mar-28 14:53 285 6 gusting 10 18.3
2015-Mar-28 14:48 330 4 gusting 10 18.3
2015-Mar-28 14:43 304 5 gusting 9 18.3
2015-Mar-28 14:38 263 6 gusting 9 18.3
2015-Mar-28 14:33 319 5 gusting 11 18.9
2015-Mar-28 14:28 305 2 gusting 11 18.9
2015-Mar-28 14:23 302 3 gusting 11 18.9
2015-Mar-28 14:18 283 4 gusting 11 18.3
2015-Mar-28 14:13 298 3 gusting 10 18.9
2015-Mar-28 14:08 285 4 gusting 10 18.9
2015-Mar-28 14:03 278 5 gusting 10 18.3
2015-Mar-28 13:58 305 1 gusting 12 18.3
2015-Mar-28 13:53 290 2 gusting 12 18.3
2015-Mar-28 13:48 257 6 gusting 9 18.3
2015-Mar-28 13:43 317 5 gusting 7 18.3
2015-Mar-28 13:38 281 6 gusting 7 18.9
2015-Mar-28 13:33 300 1 gusting 12 18.9
2015-Mar-28 13:28 300 1 gusting 12 18.9
2015-Mar-28 13:23 313 4 gusting 10 18.9
2015-Mar-28 13:18 283 3 gusting 10 18.9
2015-Mar-28 13:13 315 4 gusting 10 18.9
2015-Mar-28 13:08 285 2 gusting 10 18.9
2015-Mar-28 13:03 332 6 gusting 10 18.9
2015-Mar-28 12:58 327 6 gusting 8 18.9
2015-Mar-28 12:53 290 0 gusting 10 18.9
2015-Mar-28 12:48 317 4 gusting 10 18.9
2015-Mar-28 12:43 323 4 gusting 10 18.9
2015-Mar-28 12:38 254 6 gusting 10 18.9
2015-Mar-28 12:33 296 6 gusting 5 18.9
2015-Mar-28 12:28 259 6 gusting 5 18.9
2015-Mar-28 12:23 355 5 gusting 8 18.9
2015-Mar-28 12:18 348 3 gusting 8 18.9
2015-Mar-28 12:13 323 1 gusting 8 18.9
2015-Mar-28 12:08 302 1 gusting 7 18.9
2015-Mar-28 12:03 325 5 gusting 7 18.9
2015-Mar-28 11:58 011 3 gusting 8 18.9
2015-Mar-28 11:53 321 18.3
2015-Mar-28 11:48 355 4 gusting 6 18.3
2015-Mar-28 11:43 011 4 gusting 9 18.9
2015-Mar-28 11:38 005 4 gusting 9 18.3
2015-Mar-28 11:33 082 1 gusting 9 18.3
2015-Mar-28 11:28 085 6 gusting 9 17.8
2015-Mar-28 11:23 115 7 gusting 8 18.3
2015-Mar-28 11:18 096 4 gusting 8 18.3
2015-Mar-28 11:13 016 5 gusting 8 17.8
2015-Mar-28 11:08 042 0 gusting 9 18.3
2015-Mar-28 11:03 203 18.3
2015-Mar-28 10:58 123 0 gusting 6 18.3
2015-Mar-28 10:48 009 1 gusting 9 17.8
2015-Mar-28 10:43 242 1 gusting 9 17.8
2015-Mar-28 10:38 051 1 gusting 8 17.8
2015-Mar-28 10:33 114 4 gusting 5 17.8
2015-Mar-28 10:28 081 1 gusting 5 17.8
2015-Mar-28 10:23 015 5 gusting 5 17.8
2015-Mar-28 10:18 026 5 gusting 9 17.8
2015-Mar-28 10:13 103 1 gusting 7 17.2
2015-Mar-28 10:08 032 2 gusting 7 17.2
2015-Mar-28 10:03 070 1 gusting 7 16.7
2015-Mar-28 09:58 095 6 gusting 8 16.7
2015-Mar-28 09:53 109 1 gusting 8 16.7
2015-Mar-28 09:48 102 2 gusting 8 16.7
2015-Mar-28 09:43 078 3 gusting 12 16.7
2015-Mar-28 09:38 016 1 gusting 12 16.7
2015-Mar-28 09:33 018 3 gusting 12 16.7
2015-Mar-28 09:28 084 16.1
2015-Mar-28 09:23 086 1 gusting 5 16.1
2015-Mar-28 09:18 098 9 gusting 5 16.1
2015-Mar-28 09:13 090 2 gusting 6 16.1
2015-Mar-28 09:08 091 1 gusting 6 16.1
2015-Mar-28 09:03 076 1 gusting 6 15.6
2015-Mar-28 08:58 090 1 gusting 6 15.6
2015-Mar-28 08:53 096 1 gusting 5 15.0
2015-Mar-28 08:48 077 3 gusting 5 15.0
2015-Mar-28 08:43 355 1 gusting 3 15.0
2015-Mar-28 08:38 355 5 gusting 3 15.0
2015-Mar-28 08:33 355 2 gusting 3 15.0
2015-Mar-28 08:28 005 0 gusting 3 15.0
2015-Mar-28 08:23 355 15.0
2015-Mar-28 08:18 014 0 gusting 4 14.4
2015-Mar-28 08:13 014 2 gusting 4 14.4
2015-Mar-28 08:08 014 1 gusting 4 13.9
2015-Mar-28 08:03 014 2 gusting 4 13.9
2015-Mar-28 07:58 011 2 gusting 2 13.9
2015-Mar-28 07:53 011 13.9
2015-Mar-28 07:43 239 0 12.8
2015-Mar-28 07:38 239 12.8
2015-Mar-28 07:33 239 12.2
2015-Mar-28 07:28 239 12.2
2015-Mar-28 07:23 239 11.7
2015-Mar-28 07:18 239 11.1
2015-Mar-28 07:13 239 10.0
2015-Mar-28 07:08 239 9.4
2015-Mar-28 07:03 239 8.9
2015-Mar-28 06:58 239 8.9
2015-Mar-28 06:53 239 8.3
2015-Mar-28 06:48 238 1 gusting 2 8.3
2015-Mar-28 06:43 174 8.3
2015-Mar-28 06:38 174 7.8
2015-Mar-28 06:33 174 7.2
2015-Mar-28 06:28 174 0 gusting 2 7.2
2015-Mar-28 06:23 174 0 gusting 2 6.7
2015-Mar-28 06:18 174 6.7
2015-Mar-28 06:13 174 6.1
2015-Mar-28 06:08 174 6.1
2015-Mar-28 06:03 174 5.6
2015-Mar-28 05:58 174 5.0
2015-Mar-28 05:53 174 0 gusting 2 5.0
2015-Mar-28 05:48 174 4.4
2015-Mar-28 05:43 174 4.4
2015-Mar-28 05:38 174 2 gusting 2 4.4
2015-Mar-28 05:33 174 1 gusting 2 4.4
2015-Mar-28 05:28 174 4.4
2015-Mar-28 05:23 174 4.4
2015-Mar-28 05:18 174 4.4
2015-Mar-28 05:12 174 1 4.4
2015-Mar-28 05:07 174 0 4.4
2015-Mar-28 05:02 174 1 4.4
2015-Mar-28 04:57 174 4.4
2015-Mar-28 04:52 174 4.4
2015-Mar-28 04:47 174 4.4
2015-Mar-28 04:42 174 4.4
2015-Mar-28 04:37 174 2 gusting 1 4.4
2015-Mar-28 04:32 175 0 5.0
2015-Mar-28 04:27 174 5.0
2015-Mar-28 04:22 175 0 5.6
2015-Mar-28 04:17 175 5.6
2015-Mar-28 04:12 174 5.6
2015-Mar-28 04:07 175 5.6
2015-Mar-28 04:02 175 5.6
2015-Mar-28 03:57 175 5.6
2015-Mar-28 03:52 175 5.6
2015-Mar-28 03:47 175 5.6
2015-Mar-28 03:42 175 5.6
2015-Mar-28 03:37 175 5.6
2015-Mar-28 03:32 175 5.6
2015-Mar-28 03:27 175 5.6
2015-Mar-28 03:22 175 5.6
2015-Mar-28 03:17 174 5.6
2015-Mar-28 03:12 175 5.6
2015-Mar-28 03:07 175 5.6
2015-Mar-28 03:02 175 0 gusting 6 5.6
2015-Mar-28 02:57 173 0 gusting 4 5.6
2015-Mar-28 02:52 194 5.6
2015-Mar-28 02:47 188 0 gusting 2 5.0
2015-Mar-28 02:42 188 3 gusting 2 5.0
2015-Mar-28 02:37 182 1 gusting 2 5.0
2015-Mar-28 02:32 181 5.6
2015-Mar-28 02:27 181 5.0
2015-Mar-28 02:22 181 0 gusting 1 5.0
2015-Mar-28 02:17 180 0 gusting 1 5.0
2015-Mar-28 02:12 171 0 5.0
2015-Mar-28 02:07 169 5.0
2015-Mar-28 02:02 169 5.0
2015-Mar-28 01:57 169 5.6
2015-Mar-28 01:52 169 5.6
2015-Mar-28 01:47 169 5.6
2015-Mar-28 01:42 169 0 gusting 1 5.6
2015-Mar-28 01:37 169 5.6
2015-Mar-28 01:32 169 5.6
2015-Mar-28 01:27 169 5.6
2015-Mar-28 01:22 169 5.6
2015-Mar-28 01:17 168 5.6
2015-Mar-28 01:12 167 5.6
2015-Mar-28 01:07 167 6.1
2015-Mar-28 01:02 167 6.1
2015-Mar-28 00:57 167 6.1
2015-Mar-28 00:52 166 6.1
2015-Mar-28 00:47 166 6.1
2015-Mar-28 00:42 166 6.1
2015-Mar-28 00:37 166 6.1
2015-Mar-28 00:32 166 6.1
2015-Mar-28 00:27 166 6.1
2015-Mar-28 00:22 166 6.7
2015-Mar-28 00:17 166 6.7
2015-Mar-28 00:12 166 6.7
2015-Mar-28 00:07 166 6.7
2015-Mar-28 00:02 166 6.7
2015-Mar-27 23:57 165 1 gusting 1 6.7
2015-Mar-27 23:52 155 6.7
2015-Mar-27 23:47 155 7.2
2015-Mar-27 23:42 155 7.2
2015-Mar-27 23:37 155 7.2
2015-Mar-27 23:32 155 7.8
2015-Mar-27 23:27 155 7.8
2015-Mar-27 23:22 155 7.8
2015-Mar-27 23:17 155 7.8
2015-Mar-27 23:12 155 7.8
2015-Mar-27 23:07 155 7.8
2015-Mar-27 23:02 155 7.8
2015-Mar-27 22:57 155 8.3
2015-Mar-27 22:52 155 8.3
2015-Mar-27 22:47 155 8.3
2015-Mar-27 22:42 155 8.3
2015-Mar-27 22:37 155 8.3
2015-Mar-27 22:32 155 8.9
2015-Mar-27 22:27 155 8.9
2015-Mar-27 22:22 155 8.9
2015-Mar-27 22:17 155 8.9
2015-Mar-27 22:12 155 8.9
2015-Mar-27 22:07 155 8.9
2015-Mar-27 22:02 155 1 gusting 2 9.4
2015-Mar-27 21:57 155 9.4
2015-Mar-27 21:52 149 10.0
2015-Mar-27 21:47 146 0 10.6
2015-Mar-27 21:41 018 11.1
2015-Mar-27 21:36 026 11.1
2015-Mar-27 21:32 026 11.1
2015-Mar-27 21:27 026 11.1
2015-Mar-27 21:22 026 11.1
2015-Mar-27 21:17 026 11.1
2015-Mar-27 21:13 026 11.1
2015-Mar-27 21:08 026 11.1
2015-Mar-27 21:03 026 11.1
2015-Mar-27 20:58 026 11.1
2015-Mar-27 20:52 026 11.1
2015-Mar-27 20:47 026 11.1
2015-Mar-27 20:41 026 11.1
2015-Mar-27 20:36 026 1 gusting 3 11.1
2015-Mar-27 20:32 026 1 gusting 4 11.1
2015-Mar-27 20:27 028 2 gusting 4 11.1
2015-Mar-27 20:22 028 0 gusting 4 11.7
2015-Mar-27 20:17 028 0 gusting 4 11.7
2015-Mar-27 20:14 028 11.7
2015-Mar-27 20:09 051 1 gusting 5 12.2
2015-Mar-27 20:04 056 1 gusting 5 12.2
2015-Mar-27 20:00 081 0 gusting 2 12.2
2015-Mar-27 19:55 090 0 gusting 2 12.2
2015-Mar-27 19:42 079 0 gusting 4 12.2
2015-Mar-27 19:37 098 1 gusting 4 12.2
2015-Mar-27 19:32 092 0 gusting 3 12.2
2015-Mar-27 19:27 049 0 gusting 3 11.7
2015-Mar-27 19:22 036 1 gusting 1 11.7
2015-Mar-27 19:17 029 0 gusting 1 11.7
2015-Mar-27 19:12 029 1 gusting 2 11.7
2015-Mar-27 19:07 029 0 gusting 2 11.7
2015-Mar-27 19:02 029 0 gusting 2 11.7
2015-Mar-27 18:57 029 11.7
2015-Mar-27 18:52 029 0 gusting 5 11.7
2015-Mar-27 18:47 029 0 gusting 5 11.7
2015-Mar-27 18:42 029 1 gusting 5 12.2
2015-Mar-27 18:37 027 3 gusting 5 12.2
2015-Mar-27 18:32 027 2 gusting 6 12.2
2015-Mar-27 18:27 020 0 gusting 6 12.2
2015-Mar-27 18:22 020 1 gusting 6 12.8
2015-Mar-27 18:17 020 2 gusting 6 12.8
2015-Mar-27 18:13 014 1 gusting 7 12.8
2015-Mar-27 18:08 005 4 gusting 7 12.8
2015-Mar-27 18:03 009 1 gusting 7 13.3
2015-Mar-27 17:58 024 3 gusting 7 13.3
2015-Mar-27 17:53 051 2 gusting 6 13.3
2015-Mar-27 17:48 050 4 gusting 6 13.3
2015-Mar-27 17:43 059 1 gusting 13 13.9
2015-Mar-27 17:38 091 1 gusting 13 13.9
2015-Mar-27 17:33 079 1 gusting 11 13.9
2015-Mar-27 17:28 060 1 gusting 11 13.9
2015-Mar-27 17:23 104 1 gusting 13 14.4
2015-Mar-27 17:18 101 5 gusting 13 14.4
2015-Mar-27 17:13 095 1 gusting 11 14.4
2015-Mar-27 17:08 101 2 gusting 11 14.4
2015-Mar-27 17:03 106 3 gusting 11 15.0
2015-Mar-27 16:58 092 4 gusting 12 15.0
2015-Mar-27 16:53 107 2 gusting 7 15.0
2015-Mar-27 16:48 108 6 gusting 7 15.0
2015-Mar-27 16:42 024 4 gusting 7 15.6
2015-Mar-27 16:37 091 6 gusting 7 15.6
2015-Mar-27 16:32 105 1 gusting 11 15.6
2015-Mar-27 16:27 101 4 gusting 11 15.6
2015-Mar-27 16:22 093 5 gusting 14 16.1
2015-Mar-27 16:17 069 3 gusting 14 16.1
2015-Mar-27 16:12 076 3 gusting 11 16.1
2015-Mar-27 16:07 050 2 gusting 11 16.1
2015-Mar-27 16:02 094 4 gusting 11 16.1